Location: LDNL
(36.4545°S, 141.6685°E)
Time: 04:18:17
(UTC+11:00)

A-11 Canister half - Pass Details

Date: 14 August 2022
Orbit: 1524 x 1684 km, 47.3° (Epoch: 05 October)

Event Time Altitude Azimuth Distance (km) Brightness Sun altitude
Rises 18:28:17 0° 280° (W) 4,703 14.3 -6.5°
Reaches altitude 10° 18:31:28 10° 275° (W) 3,712 12.8 -7.2°
Maximum altitude 18:40:34 54° 199° (SSW) 1,818 9.5 -8.9°
Drops below altitude 10° 18:49:43 10° 123° (ESE) 3,726 10.4 -10.7°
Enters shadow 18:49:53 - 122° (ESE) 3,781 10.5 -10.8°
Sets 18:52:55 0° 118° (ESE) 4,722 - -11.4°
